Location: Unspecified
(44.0704°N, 88.6889°W)
Time: 00:24:37
(UTC+02:00)

CZ-3 Stage 3 - Visible Passes

Search period start: 26 May 2018 00:00
Search period end: 05 June 2018 00:00
Orbit: 421 x 34774 km, 30.9° (Epoch: 24 May)

Date Brightness Start Highest point End Pass type
(mag) Time Alt. Az. Time Alt. Az. Time Alt. Az.
26 May 8.7 07:05:27 10° SSE 13:58:02 56° SSE 14:29:31 10° E visible
27 May 9.3 07:06:22 10° ESE 09:43:19 26° ESE 10:39:38 10° E visible
28 May 6.7 09:58:43 11° SSW 12:53:02 22° SW 17:56:59 10° ESE visible
29 May 8.7 06:51:06 10° SSE 13:47:57 57° SSE 14:19:54 10° E visible
30 May 9.2 06:51:00 10° ESE 09:32:54 27° ESE 10:30:19 10° E visible
31 May 6.7 09:56:39 13° SSW 12:41:18 22° SW 17:47:20 10° SE visible
01 Jun 8.7 06:36:49 10° SSE 13:37:48 58° SSE 14:10:14 10° E visible
02 Jun 9.2 06:35:44 10° ESE 09:22:24 27° ESE 10:20:54 10° E visible
03 Jun 6.7 09:54:05 15° SSW 12:29:33 23° SW 17:37:38 10° SE visible
04 Jun 8.7 06:27:31 11° SSE 13:27:35 58° SSE 14:00:33 10° E visible
